Time,TemperatureF,DewpointF,PressureIn,WindDirection,WindDirectionDegrees,WindSpeedMPH,WindSpeedGustMPH,Humidity,HourlyPrecipIn,Conditions,Clouds,dailyrainin,SoftwareType,DateUTC
2013-02-08 00:00:00,30.5,28.7,29.36,NNW,348,0.0,0.0,93,0.00,CLR,,0.00,WeatherDisplay:10.37,2013-02-08 09:00:00,
2013-02-08 00:05:00,30.5,28.7,29.36,North,349,0.0,0.0,93,0.00,CLR,,0.00,WeatherDisplay:10.37,2013-02-08 09:05:00,
2013-02-08 00:10:00,30.4,28.6,29.36,North,349,0.0,0.0,93,0.00,CLR,,0.00,WeatherDisplay:10.37,2013-02-08 09:10:00,
2013-02-08 00:15:00,30.4,28.9,29.37,NNW,348,0.0,0.0,94,0.00,CLR,,0.00,WeatherDisplay:10.37,2013-02-08 09:15:00,
2013-02-08 00:20:00,30.4,28.9,29.37,North,349,0.0,0.0,94,0.00,CLR,,0.00,WeatherDisplay:10.37,2013-02-08 09:20:00,
2013-02-08 00:25:00,30.5,29.0,29.37,North,349,0.0,0.0,94,0.00,CLR,,0.00,WeatherDisplay:10.37,2013-02-08 09:25:00,
2013-02-08 00:30:00,30.6,29.1,29.37,NNW,348,0.0,0.0,94,0.00,CLR,,0.00,WeatherDisplay:10.37,2013-02-08 09:30:00,
2013-02-08 00:35:00,30.5,29.0,29.37,North,349,0.0,0.0,94,0.00,CLR,,0.00,WeatherDisplay:10.37,2013-02-08 09:35:00,
2013-02-08 00:40:00,30.5,29.0,29.38,NNW,348,0.0,0.0,94,0.00,CLR,,0.00,WeatherDisplay:10.37,2013-02-08 09:40:00,
2013-02-08 00:45:00,30.4,28.9,29.38,North,349,0.0,0.0,94,0.00,CLR,,0.00,WeatherDisplay:10.37,2013-02-08 09:45:00,
2013-02-08 00:50:00,30.3,28.8,29.38,NNW,348,0.0,0.0,94,0.00,CLR,,0.00,WeatherDisplay:10.37,2013-02-08 09:50:00,
2013-02-08 00:55:00,30.3,28.8,29.38,North,349,0.0,0.0,94,0.00,CLR,,0.00,WeatherDisplay:10.37,2013-02-08 09:55:00,
2013-02-08 01:00:00,30.3,28.8,29.38,North,349,0.0,0.0,94,0.00,CLR,,0.00,WeatherDisplay:10.37,2013-02-08 10:00:00,
2013-02-08 01:05:00,30.3,28.8,29.38,NNW,348,0.0,0.0,94,0.00,CLR,,0.00,WeatherDisplay:10.37,2013-02-08 10:05:00,
2013-02-08 01:10:00,30.3,28.8,29.39,North,349,0.0,0.0,94,0.00,CLR,,0.00,WeatherDisplay:10.37,2013-02-08 10:10:00,
2013-02-08 01:15:00,30.4,28.9,29.39,North,349,0.0,0.0,94,0.00,CLR,,0.00,WeatherDisplay:10.37,2013-02-08 10:15:00,
2013-02-08 01:20:00,30.5,29.0,29.39,North,349,0.0,0.0,94,0.00,CLR,,0.00,WeatherDisplay:10.37,2013-02-08 10:20:00,
2013-02-08 01:25:00,30.5,29.0,29.39,North,349,0.0,0.0,94,0.00,CLR,,0.00,WeatherDisplay:10.37,2013-02-08 10:25:00,
2013-02-08 01:30:00,30.6,29.1,29.39,North,349,0.0,0.0,94,0.00,CLR,,0.00,WeatherDisplay:10.37,2013-02-08 10:30:00,
2013-02-08 01:35:00,30.7,29.2,29.39,North,349,0.0,0.0,94,0.00,CLR,,0.00,WeatherDisplay:10.37,2013-02-08 10:35:00,
2013-02-08 01:40:00,30.7,29.2,29.39,NNW,348,0.0,0.0,94,0.00,CLR,,0.00,WeatherDisplay:10.37,2013-02-08 10:40:00,
2013-02-08 01:45:00,30.6,29.1,29.40,North,349,0.0,0.0,94,0.00,CLR,,0.00,WeatherDisplay:10.37,2013-02-08 10:45:00,
2013-02-08 01:50:00,30.6,29.1,29.40,North,349,0.0,0.0,94,0.00,CLR,,0.00,WeatherDisplay:10.37,2013-02-08 10:50:00,
2013-02-08 01:55:00,30.6,29.1,29.40,North,349,0.0,0.0,94,0.00,CLR,,0.00,WeatherDisplay:10.37,2013-02-08 10:55:00,
2013-02-08 02:00:00,30.5,29.0,29.40,North,349,0.0,0.0,94,0.00,CLR,,0.00,WeatherDisplay:10.37,2013-02-08 11:00:00,
2013-02-08 02:05:00,30.5,29.0,29.40,North,349,0.0,0.0,94,0.00,CLR,,0.00,WeatherDisplay:10.37,2013-02-08 11:05:00,
2013-02-08 02:10:00,30.4,28.9,29.40,North,349,0.0,0.0,94,0.00,CLR,,0.00,WeatherDisplay:10.37,2013-02-08 11:10:00,
2013-02-08 02:15:00,30.3,28.8,29.41,North,349,0.0,0.0,94,0.00,CLR,,0.00,WeatherDisplay:10.37,2013-02-08 11:15:00,
2013-02-08 02:20:00,30.3,28.8,29.41,NNW,348,0.0,0.0,94,0.00,CLR,,0.00,WeatherDisplay:10.37,2013-02-08 11:20:00,
2013-02-08 02:25:00,30.3,28.8,29.41,NNW,348,0.0,0.0,94,0.00,CLR,,0.00,WeatherDisplay:10.37,2013-02-08 11:25:00,
2013-02-08 02:30:00,30.5,29.0,29.42,North,349,0.0,0.0,94,0.00,CLR,,0.00,WeatherDisplay:10.37,2013-02-08 11:30:00,
2013-02-08 02:35:00,30.5,29.0,29.42,North,349,0.0,0.0,94,0.00,CLR,,0.00,WeatherDisplay:10.37,2013-02-08 11:35:00,
2013-02-08 02:40:00,30.4,28.9,29.42,NNW,348,0.0,0.0,94,0.00,CLR,,0.00,WeatherDisplay:10.37,2013-02-08 11:40:00,
2013-02-08 02:45:00,30.4,28.9,29.42,North,349,0.0,0.0,94,0.00,CLR,,0.00,WeatherDisplay:10.37,2013-02-08 11:45:00,
2013-02-08 02:50:00,30.3,28.8,29.42,North,349,0.0,0.0,94,0.00,CLR,,0.00,WeatherDisplay:10.37,2013-02-08 11:50:00,
2013-02-08 02:55:00,30.1,28.6,29.42,NNW,348,0.0,0.0,94,0.00,CLR,,0.00,WeatherDisplay:10.37,2013-02-08 11:55:00,
2013-02-08 03:00:00,29.8,28.3,29.43,NNW,348,0.0,0.0,94,0.00,CLR,,0.00,WeatherDisplay:10.37,2013-02-08 12:00:00,
2013-02-08 03:05:00,29.6,28.1,29.43,NNW,348,0.0,0.0,94,0.00,CLR,,0.00,WeatherDisplay:10.37,2013-02-08 12:05:00,
2013-02-08 03:10:00,29.4,27.9,29.43,North,349,0.0,0.0,94,0.00,CLR,,0.00,WeatherDisplay:10.37,2013-02-08 12:10:00,
2013-02-08 03:15:00,29.3,27.8,29.43,North,349,0.0,0.0,94,0.00,CLR,,0.00,WeatherDisplay:10.37,2013-02-08 12:15:00,
2013-02-08 03:20:00,29.2,27.7,29.43,North,349,0.0,0.0,94,0.00,CLR,,0.00,WeatherDisplay:10.37,2013-02-08 12:20:00,
2013-02-08 03:25:00,29.1,27.6,29.44,North,349,0.0,0.0,94,0.00,CLR,,0.00,WeatherDisplay:10.37,2013-02-08 12:25:00,
2013-02-08 03:30:00,29.2,27.7,29.44,NNW,348,0.0,0.0,94,0.00,CLR,,0.00,WeatherDisplay:10.37,2013-02-08 12:30:00,
2013-02-08 03:35:00,29.3,27.8,29.44,NNW,348,0.0,0.0,94,0.00,CLR,,0.00,WeatherDisplay:10.37,2013-02-08 12:35:00,
2013-02-08 03:40:00,29.3,27.8,29.44,North,349,0.0,0.0,94,0.00,CLR,,0.00,WeatherDisplay:10.37,2013-02-08 12:40:00,
2013-02-08 03:45:00,29.4,27.9,29.44,North,349,0.0,0.0,94,0.00,CLR,,0.00,WeatherDisplay:10.37,2013-02-08 12:45:00,
2013-02-08 03:50:00,29.4,27.9,29.44,North,349,0.0,0.0,94,0.00,CLR,,0.00,WeatherDisplay:10.37,2013-02-08 12:50:00,
2013-02-08 03:55:00,29.5,28.0,29.44,North,349,0.0,0.0,94,0.00,CLR,,0.00,WeatherDisplay:10.37,2013-02-08 12:55:00,
2013-02-08 04:00:00,29.5,28.0,29.44,NNW,348,0.0,0.0,94,0.00,CLR,,0.00,WeatherDisplay:10.37,2013-02-08 13:00:00,
2013-02-08 04:05:00,29.4,27.9,29.45,North,349,0.0,0.0,94,0.00,CLR,,0.00,WeatherDisplay:10.37,2013-02-08 13:05:00,
2013-02-08 04:10:00,29.3,27.8,29.45,NNW,348,0.0,0.0,94,0.00,CLR,,0.00,WeatherDisplay:10.37,2013-02-08 13:10:00,
2013-02-08 04:15:00,29.4,27.9,29.45,North,349,0.0,0.0,94,0.00,CLR,,0.00,WeatherDisplay:10.37,2013-02-08 13:15:00,
2013-02-08 04:20:00,29.4,27.9,29.45,North,349,0.0,0.0,94,0.00,CLR,,0.00,WeatherDisplay:10.37,2013-02-08 13:20:00,
2013-02-08 04:25:00,29.3,27.8,29.45,North,349,0.0,0.0,94,0.00,CLR,,0.00,WeatherDisplay:10.37,2013-02-08 13:25:00,
2013-02-08 04:30:00,29.2,27.7,29.46,NNW,348,0.0,0.0,94,0.00,CLR,,0.00,WeatherDisplay:10.37,2013-02-08 13:30:00,
2013-02-08 04:35:00,29.1,27.6,29.46,North,349,0.0,0.0,94,0.00,CLR,,0.00,WeatherDisplay:10.37,2013-02-08 13:35:00,
2013-02-08 04:40:00,29.0,27.5,29.46,North,349,0.0,0.0,94,0.00,CLR,,0.00,WeatherDisplay:10.37,2013-02-08 13:40:00,
2013-02-08 04:45:00,28.8,27.3,29.46,North,349,0.0,0.0,94,0.00,CLR,,0.00,WeatherDisplay:10.37,2013-02-08 13:45:00,
2013-02-08 04:50:00,28.7,27.2,29.47,NNW,348,0.0,0.0,94,0.00,CLR,,0.00,WeatherDisplay:10.37,2013-02-08 13:50:00,
2013-02-08 04:55:00,28.7,27.2,29.47,North,349,0.0,0.0,94,0.00,CLR,,0.00,WeatherDisplay:10.37,2013-02-08 13:55:00,
2013-02-08 05:00:00,28.6,27.1,29.47,North,349,0.0,0.0,94,0.00,CLR,,0.00,WeatherDisplay:10.37,2013-02-08 14:00:00,
2013-02-08 05:05:00,28.7,27.2,29.48,NNW,348,0.0,0.0,94,0.00,CLR,,0.00,WeatherDisplay:10.37,2013-02-08 14:05:00,
2013-02-08 05:10:00,28.8,27.3,29.48,NNW,348,0.0,0.0,94,0.00,CLR,,0.00,WeatherDisplay:10.37,2013-02-08 14:10:00,
2013-02-08 05:15:00,28.8,27.3,29.48,NNW,348,0.0,0.0,94,0.00,CLR,,0.00,WeatherDisplay:10.37,2013-02-08 14:15:00,
2013-02-08 05:20:00,28.8,27.3,29.49,North,349,0.0,0.0,94,0.00,CLR,,0.00,WeatherDisplay:10.37,2013-02-08 14:20:00,
2013-02-08 05:25:00,28.9,27.4,29.49,NNW,348,0.0,0.0,94,0.00,CLR,,0.00,WeatherDisplay:10.37,2013-02-08 14:25:00,
2013-02-08 05:30:00,29.0,27.5,29.49,North,349,0.0,0.0,94,0.00,CLR,,0.00,WeatherDisplay:10.37,2013-02-08 14:30:00,
2013-02-08 05:35:00,29.2,27.9,29.49,North,349,0.0,0.0,95,0.00,CLR,,0.00,WeatherDisplay:10.37,2013-02-08 14:35:00,
2013-02-08 05:40:00,29.3,28.0,29.49,North,349,0.0,0.0,95,0.00,CLR,,0.00,WeatherDisplay:10.37,2013-02-08 14:40:00,
2013-02-08 05:45:00,29.3,28.0,29.49,NNW,348,0.0,0.0,95,0.00,CLR,,0.00,WeatherDisplay:10.37,2013-02-08 14:45:00,
2013-02-08 05:50:00,29.1,27.6,29.49,North,349,0.0,0.0,94,0.00,CLR,,0.00,WeatherDisplay:10.37,2013-02-08 14:50:00,
2013-02-08 05:55:00,28.9,27.4,29.49,North,349,0.0,0.0,94,0.00,CLR,,0.00,WeatherDisplay:10.37,2013-02-08 14:55:00,
2013-02-08 06:00:00,28.7,27.2,29.50,North,349,0.0,0.0,94,0.00,CLR,,0.00,WeatherDisplay:10.37,2013-02-08 15:00:00,
2013-02-08 06:05:00,28.5,27.0,29.50,North,349,0.0,0.0,94,0.00,CLR,,0.00,WeatherDisplay:10.37,2013-02-08 15:05:00,
2013-02-08 06:10:00,28.3,26.8,29.50,North,349,0.0,0.0,94,0.00,CLR,,0.00,WeatherDisplay:10.37,2013-02-08 15:10:00,
2013-02-08 06:15:00,28.2,26.7,29.50,North,349,0.0,0.0,94,0.00,CLR,,0.00,WeatherDisplay:10.37,2013-02-08 15:15:00,
2013-02-08 06:20:00,28.3,26.8,29.51,NNW,348,0.0,0.0,94,0.00,CLR,,0.00,WeatherDisplay:10.37,2013-02-08 15:20:00,
2013-02-08 06:25:00,28.4,26.9,29.51,North,349,0.0,0.0,94,0.00,CLR,,0.00,WeatherDisplay:10.37,2013-02-08 15:25:00,
2013-02-08 06:30:00,28.4,26.9,29.51,NNW,348,0.0,0.0,94,0.00,CLR,,0.00,WeatherDisplay:10.37,2013-02-08 15:30:00,
2013-02-08 06:35:00,28.4,26.9,29.51,North,349,0.0,0.0,94,0.00,CLR,,0.00,WeatherDisplay:10.37,2013-02-08 15:35:00,
2013-02-08 06:40:00,28.3,26.8,29.52,NNW,348,0.0,0.0,94,0.00,CLR,,0.00,WeatherDisplay:10.37,2013-02-08 15:40:00,
2013-02-08 06:45:00,28.1,26.6,29.52,NNW,348,0.0,0.0,94,0.00,CLR,,0.00,WeatherDisplay:10.37,2013-02-08 15:45:00,
2013-02-08 06:50:00,28.1,26.6,29.52,North,349,0.0,0.0,94,0.00,CLR,,0.00,WeatherDisplay:10.37,2013-02-08 15:50:00,
2013-02-08 06:55:00,28.4,26.9,29.52,NNW,348,0.0,0.0,94,0.00,CLR,,0.00,WeatherDisplay:10.37,2013-02-08 15:55:00,
2013-02-08 07:00:00,28.5,27.0,29.52,North,349,0.0,0.0,94,0.00,CLR,,0.00,WeatherDisplay:10.37,2013-02-08 16:00:00,
2013-02-08 07:05:00,28.0,26.5,29.52,NNW,348,0.0,0.0,94,0.00,CLR,,0.00,WeatherDisplay:10.37,2013-02-08 16:05:00,
2013-02-08 07:10:00,27.8,26.3,29.52,North,349,0.0,0.0,94,0.00,CLR,,0.00,WeatherDisplay:10.37,2013-02-08 16:10:00,
2013-02-08 07:15:00,27.3,25.8,29.53,NNW,348,0.0,0.0,94,0.00,CLR,,0.00,WeatherDisplay:10.37,2013-02-08 16:15:00,
2013-02-08 07:20:00,26.8,25.0,29.53,NNW,348,0.0,0.0,93,0.00,CLR,,0.00,WeatherDisplay:10.37,2013-02-08 16:20:00,
2013-02-08 07:25:00,26.6,24.8,29.53,North,349,0.0,0.0,93,0.00,CLR,,0.00,WeatherDisplay:10.37,2013-02-08 16:25:00,
2013-02-08 07:30:00,26.6,25.1,29.54,North,349,0.0,0.0,94,0.00,CLR,,0.00,WeatherDisplay:10.37,2013-02-08 16:30:00,
2013-02-08 07:35:00,26.5,25.0,29.54,NNW,348,0.0,0.0,94,0.00,CLR,,0.00,WeatherDisplay:10.37,2013-02-08 16:35:00,
2013-02-08 07:40:00,26.3,24.8,29.54,NNW,348,0.0,0.0,94,0.00,CLR,,0.00,WeatherDisplay:10.37,2013-02-08 16:40:00,
2013-02-08 07:45:00,26.3,24.8,29.54,North,349,0.0,0.0,94,0.00,CLR,,0.00,WeatherDisplay:10.37,2013-02-08 16:45:00,
2013-02-08 07:50:00,26.3,24.8,29.55,North,349,0.0,0.0,94,0.00,CLR,,0.00,WeatherDisplay:10.37,2013-02-08 16:50:00,
2013-02-08 07:55:00,26.5,25.0,29.55,NNW,348,0.0,0.0,94,0.00,CLR,,0.00,WeatherDisplay:10.37,2013-02-08 16:55:00,
2013-02-08 08:00:00,27.0,25.5,29.55,NNW,348,0.0,0.0,94,0.00,CLR,,0.00,WeatherDisplay:10.37,2013-02-08 17:00:00,
2013-02-08 08:06:00,27.3,25.8,29.56,North,349,0.0,0.0,94,0.00,CLR,,0.00,WeatherDisplay:10.37,2013-02-08 17:06:00,
2013-02-08 08:11:00,27.3,25.8,29.56,NNW,348,0.0,0.0,94,0.00,CLR,,0.00,WeatherDisplay:10.37,2013-02-08 17:11:00,
2013-02-08 08:16:00,27.0,25.5,29.57,NNW,348,0.0,0.0,94,0.00,CLR,,0.00,WeatherDisplay:10.37,2013-02-08 17:16:00,
2013-02-08 08:21:00,26.2,24.7,29.57,North,349,0.0,0.0,94,0.00,CLR,,0.00,WeatherDisplay:10.37,2013-02-08 17:21:00,
2013-02-08 08:26:00,25.7,24.2,29.57,North,349,0.0,0.0,94,0.00,CLR,,0.00,WeatherDisplay:10.37,2013-02-08 17:26:00,
2013-02-08 08:31:00,25.5,24.0,29.57,NNW,348,0.0,0.0,94,0.00,CLR,,0.00,WeatherDisplay:10.37,2013-02-08 17:31:00,
2013-02-08 08:36:00,25.3,23.8,29.58,North,349,0.0,0.0,94,0.00,CLR,,0.00,WeatherDisplay:10.37,2013-02-08 17:36:00,
2013-02-08 08:41:00,25.4,23.9,29.58,NNW,348,0.0,0.0,94,0.00,CLR,,0.00,WeatherDisplay:10.37,2013-02-08 17:41:00,
2013-02-08 08:46:00,25.8,24.3,29.59,North,349,0.0,0.0,94,0.00,CLR,,0.00,WeatherDisplay:10.37,2013-02-08 17:46:00,
2013-02-08 08:51:00,25.7,24.2,29.59,North,349,0.0,0.0,94,0.00,CLR,,0.00,WeatherDisplay:10.37,2013-02-08 17:51:00,
2013-02-08 08:56:00,25.4,23.9,29.59,North,349,0.0,0.0,94,0.00,CLR,,0.00,WeatherDisplay:10.37,2013-02-08 17:56:00,
2013-02-08 09:01:00,25.2,23.7,29.59,NNW,348,0.0,0.0,94,0.00,CLR,,0.00,WeatherDisplay:10.37,2013-02-08 18:01:00,
2013-02-08 09:06:00,25.4,23.9,29.59,North,349,0.0,0.0,94,0.00,CLR,,0.00,WeatherDisplay:10.37,2013-02-08 18:06:00,
2013-02-08 09:11:00,26.3,25.1,29.59,NNW,348,0.0,0.0,95,0.00,CLR,,0.00,WeatherDisplay:10.37,2013-02-08 18:11:00,
2013-02-08 09:16:00,26.3,24.8,29.59,NNW,348,0.0,0.0,94,0.00,CLR,,0.00,WeatherDisplay:10.37,2013-02-08 18:16:00,
2013-02-08 09:21:00,25.9,24.4,29.60,NNW,348,0.0,0.0,94,0.00,CLR,,0.00,WeatherDisplay:10.37,2013-02-08 18:21:00,
2013-02-08 09:26:00,25.3,23.8,29.60,North,349,0.0,0.0,94,0.00,CLR,,0.00,WeatherDisplay:10.37,2013-02-08 18:26:00,
2013-02-08 09:31:00,25.0,23.5,29.60,North,349,0.0,0.0,94,0.00,CLR,,0.00,WeatherDisplay:10.37,2013-02-08 18:31:00,
2013-02-08 09:36:00,24.6,22.9,29.61,North,349,0.0,0.0,93,0.00,CLR,,0.00,WeatherDisplay:10.37,2013-02-08 18:36:00,
2013-02-08 09:41:00,24.3,22.6,29.61,NNW,348,0.0,0.0,93,0.00,CLR,,0.00,WeatherDisplay:10.37,2013-02-08 18:41:00,
2013-02-08 09:46:00,24.2,22.5,29.61,North,349,0.0,0.0,93,0.00,CLR,,0.00,WeatherDisplay:10.37,2013-02-08 18:46:00,
2013-02-08 09:51:00,24.3,22.8,29.61,North,349,0.0,0.0,94,0.00,CLR,,0.00,WeatherDisplay:10.37,2013-02-08 18:51:00,
2013-02-08 09:56:00,24.0,22.3,29.61,NNW,348,0.0,0.0,93,0.00,CLR,,0.00,WeatherDisplay:10.37,2013-02-08 18:56:00,
2013-02-08 10:01:00,23.7,22.0,29.62,North,349,0.0,0.0,93,0.00,CLR,,0.00,WeatherDisplay:10.37,2013-02-08 19:01:00,
2013-02-08 10:06:00,23.7,22.0,29.62,NNW,348,0.0,0.0,93,0.00,CLR,,0.00,WeatherDisplay:10.37,2013-02-08 19:06:00,
2013-02-08 10:11:00,24.2,22.7,29.62,North,349,0.0,0.0,94,0.00,CLR,,0.00,WeatherDisplay:10.37,2013-02-08 19:11:00,
2013-02-08 10:16:00,25.0,23.5,29.62,NNW,348,0.0,0.0,94,0.00,CLR,,0.00,WeatherDisplay:10.37,2013-02-08 19:16:00,
2013-02-08 10:21:00,24.7,23.2,29.62,NNW,348,0.0,0.0,94,0.00,CLR,,0.00,WeatherDisplay:10.37,2013-02-08 19:21:00,
2013-02-08 10:26:00,24.3,22.8,29.63,North,349,0.0,0.0,94,0.00,CLR,,0.00,WeatherDisplay:10.37,2013-02-08 19:26:00,
2013-02-08 10:31:00,24.2,22.7,29.63,North,349,0.0,0.0,94,0.00,CLR,,0.00,WeatherDisplay:10.37,2013-02-08 19:31:00,
2013-02-08 10:36:00,24.0,22.5,29.63,North,349,0.0,0.0,94,0.00,CLR,,0.00,WeatherDisplay:10.37,2013-02-08 19:36:00,
2013-02-08 10:41:00,23.9,22.4,29.64,NNW,348,0.0,0.0,94,0.00,CLR,,0.00,WeatherDisplay:10.37,2013-02-08 19:41:00,
2013-02-08 10:46:00,23.9,22.4,29.64,North,349,0.0,0.0,94,0.00,CLR,,0.00,WeatherDisplay:10.37,2013-02-08 19:46:00,
2013-02-08 10:51:00,23.9,22.4,29.64,NNW,348,0.0,0.0,94,0.00,CLR,,0.00,WeatherDisplay:10.37,2013-02-08 19:51:00,
2013-02-08 10:56:00,24.0,22.5,29.64,North,349,0.0,0.0,94,0.00,CLR,,0.00,WeatherDisplay:10.37,2013-02-08 19:56:00,
2013-02-08 11:01:00,24.3,22.8,29.65,NNW,348,0.0,0.0,94,0.00,CLR,,0.00,WeatherDisplay:10.37,2013-02-08 20:01:00,
2013-02-08 11:06:00,24.6,23.1,29.65,North,349,0.0,0.0,94,0.00,CLR,,0.00,WeatherDisplay:10.37,2013-02-08 20:06:00,
2013-02-08 11:11:00,24.6,23.1,29.65,NNW,348,0.0,0.0,94,0.00,CLR,,0.00,WeatherDisplay:10.37,2013-02-08 20:11:00,
2013-02-08 11:16:00,24.8,23.3,29.66,North,349,0.0,0.0,94,0.00,CLR,,0.00,WeatherDisplay:10.37,2013-02-08 20:16:00,
2013-02-08 11:21:00,25.2,23.7,29.66,North,349,0.0,0.0,94,0.00,CLR,,0.00,WeatherDisplay:10.37,2013-02-08 20:21:00,
2013-02-08 11:26:00,25.8,24.3,29.66,NNW,348,0.0,0.0,94,0.00,CLR,,0.00,WeatherDisplay:10.37,2013-02-08 20:26:00,
2013-02-08 11:31:00,26.2,24.7,29.66,NNW,348,0.0,0.0,94,0.00,CLR,,0.00,WeatherDisplay:10.37,2013-02-08 20:31:00,
2013-02-08 11:36:00,26.2,24.7,29.66,NNW,348,0.0,0.0,94,0.00,CLR,,0.00,WeatherDisplay:10.37,2013-02-08 20:36:00,
2013-02-08 11:41:00,26.0,24.5,29.66,North,349,0.0,0.0,94,0.00,CLR,,0.00,WeatherDisplay:10.37,2013-02-08 20:41:00,
2013-02-08 11:46:00,26.2,24.7,29.67,North,349,0.0,0.0,94,0.00,CLR,,0.00,WeatherDisplay:10.37,2013-02-08 20:46:00,
2013-02-08 11:51:00,26.7,25.2,29.67,NNW,348,0.0,0.0,94,0.00,CLR,,0.00,WeatherDisplay:10.37,2013-02-08 20:51:00,
2013-02-08 11:56:00,28.0,26.8,29.67,North,349,0.0,0.0,95,0.00,CLR,,0.00,WeatherDisplay:10.37,2013-02-08 20:56:00,
2013-02-08 12:01:00,29.1,27.8,29.67,North,349,0.0,0.0,95,0.00,CLR,,0.00,WeatherDisplay:10.37,2013-02-08 21:01:00,
2013-02-08 12:06:00,29.9,28.6,29.67,NNW,348,0.0,0.0,95,0.00,CLR,,0.00,WeatherDisplay:10.37,2013-02-08 21:06:00,
2013-02-08 12:11:00,30.1,28.8,29.68,North,349,0.0,0.0,95,0.00,CLR,,0.00,WeatherDisplay:10.37,2013-02-08 21:11:00,
2013-02-08 12:16:00,30.4,28.9,29.68,North,349,0.0,0.0,94,0.00,CLR,,0.00,WeatherDisplay:10.37,2013-02-08 21:16:00,
2013-02-08 12:21:00,30.9,29.4,29.68,North,349,0.0,0.0,94,0.00,CLR,,0.00,WeatherDisplay:10.37,2013-02-08 21:21:00,
2013-02-08 12:26:00,30.9,29.1,29.68,North,349,0.0,0.0,93,0.00,CLR,,0.00,WeatherDisplay:10.37,2013-02-08 21:26:00,
2013-02-08 12:31:00,31.0,28.9,29.68,NNW,348,0.0,0.0,92,0.00,CLR,,0.00,WeatherDisplay:10.37,2013-02-08 21:31:00,
2013-02-08 12:36:00,31.3,29.2,29.68,North,349,0.0,0.0,92,0.00,CLR,,0.00,WeatherDisplay:10.37,2013-02-08 21:36:00,
2013-02-08 12:41:00,31.7,29.6,29.68,NNW,348,0.0,0.0,92,0.00,CLR,,0.00,WeatherDisplay:10.37,2013-02-08 21:41:00,
2013-02-08 12:46:00,32.1,30.0,29.68,North,349,0.0,0.0,92,0.00,CLR,,0.00,WeatherDisplay:10.37,2013-02-08 21:46:00,
2013-02-08 12:51:00,32.4,30.1,29.68,North,349,0.0,0.0,91,0.00,CLR,,0.00,WeatherDisplay:10.37,2013-02-08 21:51:00,
2013-02-08 12:56:00,32.5,29.9,29.68,North,349,0.0,0.0,90,0.00,CLR,,0.00,WeatherDisplay:10.37,2013-02-08 21:56:00,
2013-02-08 13:01:00,32.7,29.8,29.69,North,349,0.0,0.0,89,0.00,CLR,,0.00,WeatherDisplay:10.37,2013-02-08 22:01:00,
2013-02-08 13:06:00,32.8,29.6,29.69,North,349,0.0,0.0,88,0.00,CLR,,0.00,WeatherDisplay:10.37,2013-02-08 22:06:00,
2013-02-08 13:11:00,32.8,29.6,29.69,NNW,348,0.0,0.0,88,0.00,CLR,,0.00,WeatherDisplay:10.37,2013-02-08 22:11:00,
2013-02-08 13:16:00,33.0,29.8,29.69,NNW,348,0.0,0.0,88,0.00,CLR,,0.00,WeatherDisplay:10.37,2013-02-08 22:16:00,
2013-02-08 13:21:00,33.2,29.8,29.69,North,349,0.0,0.0,87,0.00,CLR,,0.00,WeatherDisplay:10.37,2013-02-08 22:21:00,
2013-02-08 13:26:00,33.4,29.9,29.69,NNW,348,0.0,0.0,87,0.00,CLR,,0.00,WeatherDisplay:10.37,2013-02-08 22:26:00,
2013-02-08 13:31:00,33.6,30.1,29.70,North,349,0.0,0.0,87,0.00,CLR,,0.00,WeatherDisplay:10.37,2013-02-08 22:31:00,
2013-02-08 13:36:00,33.8,30.3,29.70,North,349,0.0,0.0,87,0.00,CLR,,0.00,WeatherDisplay:10.37,2013-02-08 22:36:00,
2013-02-08 13:41:00,34.0,30.5,29.70,North,349,0.0,0.0,87,0.00,CLR,,0.00,WeatherDisplay:10.37,2013-02-08 22:41:00,
2013-02-08 13:46:00,34.1,30.6,29.70,NNW,348,0.0,0.0,87,0.00,CLR,,0.00,WeatherDisplay:10.37,2013-02-08 22:46:00,
2013-02-08 13:51:00,34.3,30.5,29.70,NNW,348,0.0,0.0,86,0.00,CLR,,0.00,WeatherDisplay:10.37,2013-02-08 22:51:00,
2013-02-08 13:56:00,34.4,30.6,29.71,North,349,0.0,0.0,86,0.00,CLR,,0.00,WeatherDisplay:10.37,2013-02-08 22:56:00,
2013-02-08 14:01:00,34.4,30.6,29.71,North,349,0.0,0.0,86,0.00,CLR,,0.00,WeatherDisplay:10.37,2013-02-08 23:01:00,
2013-02-08 14:06:00,34.4,30.1,29.72,NNW,348,0.0,0.0,84,0.00,CLR,,0.00,WeatherDisplay:10.37,2013-02-08 23:06:00,
2013-02-08 14:11:00,34.4,30.4,29.72,NNW,348,0.0,0.0,85,0.00,CLR,,0.00,WeatherDisplay:10.37,2013-02-08 23:11:00,
2013-02-08 14:16:00,34.4,30.1,29.72,North,349,0.0,0.0,84,0.00,CLR,,0.00,WeatherDisplay:10.37,2013-02-08 23:16:00,
2013-02-08 14:21:00,34.4,30.1,29.72,NNW,348,0.0,0.0,84,0.00,CLR,,0.00,WeatherDisplay:10.37,2013-02-08 23:21:00,
2013-02-08 14:26:00,34.4,30.4,29.72,North,349,0.0,0.0,85,0.00,CLR,,0.00,WeatherDisplay:10.37,2013-02-08 23:26:00,
2013-02-08 14:31:00,34.4,30.4,29.72,NNW,348,0.0,0.0,85,0.00,CLR,,0.00,WeatherDisplay:10.37,2013-02-08 23:31:00,
2013-02-08 14:36:00,34.3,30.3,29.73,North,349,0.0,0.0,85,0.00,CLR,,0.00,WeatherDisplay:10.37,2013-02-08 23:36:00,
2013-02-08 14:41:00,34.2,30.4,29.72,North,349,0.0,0.0,86,0.00,CLR,,0.00,WeatherDisplay:10.37,2013-02-08 23:41:00,
2013-02-08 14:46:00,34.1,30.4,29.72,NNW,348,0.0,0.0,86,0.00,CLR,,0.00,WeatherDisplay:10.37,2013-02-08 23:46:00,
2013-02-08 14:51:00,34.0,30.3,29.73,North,349,0.0,0.0,86,0.00,CLR,,0.00,WeatherDisplay:10.37,2013-02-08 23:51:00,
2013-02-08 14:56:00,34.0,30.5,29.73,North,349,0.0,0.0,87,0.00,CLR,,0.00,WeatherDisplay:10.37,2013-02-08 23:56:00,
2013-02-08 15:01:00,33.7,30.5,29.73,North,349,0.0,0.0,88,0.00,CLR,,0.00,WeatherDisplay:10.37,2013-02-09 00:01:00,
2013-02-08 15:06:00,33.5,30.3,29.73,NNW,348,0.0,0.0,88,0.00,CLR,,0.00,WeatherDisplay:10.37,2013-02-09 00:06:00,
2013-02-08 15:11:00,33.5,30.6,29.73,North,349,0.0,0.0,89,0.00,CLR,,0.00,WeatherDisplay:10.37,2013-02-09 00:11:00,
2013-02-08 15:16:00,33.5,30.6,29.74,North,349,0.0,0.0,89,0.00,CLR,,0.00,WeatherDisplay:10.37,2013-02-09 00:16:00,
2013-02-08 15:21:00,33.5,30.6,29.74,NNW,348,0.0,0.0,89,0.00,CLR,,0.00,WeatherDisplay:10.37,2013-02-09 00:21:00,
2013-02-08 15:26:00,33.5,30.6,29.74,North,349,0.0,0.0,89,0.00,CLR,,0.00,WeatherDisplay:10.37,2013-02-09 00:26:00,
2013-02-08 15:31:00,33.5,30.6,29.74,North,349,0.0,0.0,89,0.00,CLR,,0.00,WeatherDisplay:10.37,2013-02-09 00:31:00,
2013-02-08 15:36:00,33.3,30.1,29.74,North,349,0.0,0.0,88,0.00,CLR,,0.00,WeatherDisplay:10.37,2013-02-09 00:36:00,
2013-02-08 15:41:00,33.2,30.3,29.74,NNW,348,0.0,0.0,89,0.00,CLR,,0.00,WeatherDisplay:10.37,2013-02-09 00:41:00,
2013-02-08 15:46:00,32.9,30.0,29.74,North,349,0.0,0.0,89,0.00,CLR,,0.00,WeatherDisplay:10.37,2013-02-09 00:46:00,
2013-02-08 15:51:00,32.5,29.9,29.74,North,349,0.0,0.0,90,0.00,CLR,,0.00,WeatherDisplay:10.37,2013-02-09 00:51:00,
2013-02-08 15:56:00,32.4,29.8,29.74,NNW,348,0.0,0.0,90,0.00,CLR,,0.00,WeatherDisplay:10.37,2013-02-09 00:56:00,
2013-02-08 16:01:00,32.4,30.1,29.74,NNW,348,0.0,0.0,91,0.00,CLR,,0.00,WeatherDisplay:10.37,2013-02-09 01:01:00,
2013-02-08 16:06:00,32.4,30.1,29.74,North,349,0.0,0.0,91,0.00,CLR,,0.00,WeatherDisplay:10.37,2013-02-09 01:06:00,
2013-02-08 16:11:00,32.5,30.2,29.74,North,349,0.0,0.0,91,0.00,CLR,,0.00,WeatherDisplay:10.37,2013-02-09 01:11:00,
2013-02-08 16:16:00,32.5,30.2,29.74,North,349,0.0,0.0,91,0.00,CLR,,0.00,WeatherDisplay:10.37,2013-02-09 01:16:00,
2013-02-08 16:21:00,32.5,30.2,29.74,NNW,348,0.0,0.0,91,0.00,CLR,,0.00,WeatherDisplay:10.37,2013-02-09 01:21:00,
2013-02-08 16:26:00,32.5,30.2,29.74,North,349,0.0,0.0,91,0.00,CLR,,0.00,WeatherDisplay:10.37,2013-02-09 01:26:00,
2013-02-08 16:31:00,32.5,30.2,29.74,NNW,348,0.0,0.0,91,0.00,CLR,,0.00,WeatherDisplay:10.37,2013-02-09 01:31:00,
2013-02-08 16:36:00,32.4,30.1,29.74,NNW,348,0.0,0.0,91,0.00,CLR,,0.00,WeatherDisplay:10.37,2013-02-09 01:36:00,
2013-02-08 16:41:00,32.4,30.1,29.74,North,349,0.0,0.0,91,0.00,CLR,,0.00,WeatherDisplay:10.37,2013-02-09 01:41:00,
2013-02-08 16:46:00,32.4,30.1,29.74,North,349,0.0,0.0,91,0.00,CLR,,0.00,WeatherDisplay:10.37,2013-02-09 01:46:00,
2013-02-08 16:51:00,32.4,30.1,29.74,North,349,0.0,0.0,91,0.00,CLR,,0.00,WeatherDisplay:10.37,2013-02-09 01:51:00,
2013-02-08 16:56:00,32.4,30.3,29.74,NNW,348,0.0,0.0,92,0.00,CLR,,0.00,WeatherDisplay:10.37,2013-02-09 01:56:00,
2013-02-08 17:01:00,32.3,30.2,29.74,North,349,0.0,0.0,92,0.00,CLR,,0.00,WeatherDisplay:10.37,2013-02-09 02:01:00,
2013-02-08 17:06:00,32.2,30.1,29.74,NNW,348,0.0,0.0,92,0.00,CLR,,0.00,WeatherDisplay:10.37,2013-02-09 02:06:00,
2013-02-08 17:11:00,32.1,30.0,29.74,NNW,348,0.0,0.0,92,0.00,CLR,,0.00,WeatherDisplay:10.37,2013-02-09 02:11:00,
2013-02-08 17:16:00,32.2,30.1,29.74,NNW,348,0.0,0.0,92,0.00,CLR,,0.00,WeatherDisplay:10.37,2013-02-09 02:16:00,
2013-02-08 17:21:00,32.2,30.1,29.74,NNW,348,0.0,0.0,92,0.00,CLR,,0.00,WeatherDisplay:10.37,2013-02-09 02:21:00,
2013-02-08 17:26:00,32.3,30.2,29.74,NNW,348,0.0,0.0,92,0.00,CLR,,0.00,WeatherDisplay:10.37,2013-02-09 02:26:00,
2013-02-08 17:31:00,32.4,30.1,29.74,NNW,348,0.0,0.0,91,0.00,CLR,,0.00,WeatherDisplay:10.37,2013-02-09 02:31:00,
2013-02-08 17:36:00,32.3,30.2,29.74,NNW,348,0.0,0.0,92,0.00,CLR,,0.00,WeatherDisplay:10.37,2013-02-09 02:36:00,
2013-02-08 17:41:00,32.2,30.1,29.75,NNW,348,0.0,0.0,92,0.00,CLR,,0.00,WeatherDisplay:10.37,2013-02-09 02:41:00,
2013-02-08 17:46:00,32.3,30.2,29.75,NNW,348,0.0,0.0,92,0.00,CLR,,0.00,WeatherDisplay:10.37,2013-02-09 02:46:00,
2013-02-08 17:51:00,32.3,30.0,29.75,NNW,348,0.0,0.0,91,0.00,CLR,,0.00,WeatherDisplay:10.37,2013-02-09 02:51:00,
2013-02-08 22:43:00,32.2,30.1,29.74,NNW,348,0.0,0.0,92,0.00,CLR,,0.00,WeatherDisplay:10.37,2013-02-09 07:43:00,
2013-02-08 22:44:00,32.2,30.1,29.74,NNW,348,0.0,0.0,92,0.00,CLR,,0.00,WeatherDisplay:10.37,2013-02-09 07:44:00,
2013-02-08 22:49:00,32.1,30.3,29.74,NNW,348,0.0,0.0,93,0.00,CLR,,0.00,WeatherDisplay:10.37,2013-02-09 07:49:00,
2013-02-08 22:54:00,32.0,30.2,29.73,NNW,348,0.0,0.0,93,0.00,CLR,,0.00,WeatherDisplay:10.37,2013-02-09 07:54:00,
2013-02-08 22:59:00,32.0,30.2,29.73,NNW,348,0.0,0.0,93,0.00,CLR,,0.00,WeatherDisplay:10.37,2013-02-09 07:59:00,
2013-02-08 23:04:00,32.1,30.3,29.73,NNW,348,0.0,0.0,93,0.00,CLR,,0.00,WeatherDisplay:10.37,2013-02-09 08:04:00,
2013-02-08 23:09:00,32.1,30.3,29.73,NNW,348,0.0,0.0,93,0.00,CLR,,0.00,WeatherDisplay:10.37,2013-02-09 08:09:00,
2013-02-08 23:14:00,32.2,30.7,29.73,NNW,348,0.0,0.0,94,0.00,CLR,,0.00,WeatherDisplay:10.37,2013-02-09 08:14:00,
2013-02-08 23:19:00,32.2,30.7,29.73,NNW,348,0.0,0.0,94,0.00,CLR,,0.00,WeatherDisplay:10.37,2013-02-09 08:19:00,
2013-02-08 23:24:00,32.2,30.7,29.73,NNW,348,0.0,0.0,94,0.00,CLR,,0.00,WeatherDisplay:10.37,2013-02-09 08:24:00,
2013-02-08 23:29:00,32.1,30.6,29.73,NNW,348,0.0,0.0,94,0.00,CLR,,0.00,WeatherDisplay:10.37,2013-02-09 08:29:00,
2013-02-08 23:34:00,32.0,30.5,29.73,NNW,348,0.0,0.0,94,0.00,CLR,,0.00,WeatherDisplay:10.37,2013-02-09 08:34:00,
2013-02-08 23:39:00,32.0,30.5,29.73,NNW,348,0.0,0.0,94,0.00,,,0.00,WeatherDisplay:10.37,2013-02-09 08:39:00,
2013-02-08 23:44:00,31.9,30.4,29.73,NNW,348,0.0,0.0,94,0.00,CLR,,0.00,WeatherDisplay:10.37,2013-02-09 08:44:00,
2013-02-08 23:49:00,31.9,30.4,29.72,NNW,348,0.0,0.0,94,0.00,CLR,,0.00,WeatherDisplay:10.37,2013-02-09 08:49:00,
2013-02-08 23:54:00,31.8,30.3,29.72,NNW,348,0.0,0.0,94,0.00,CLR,,0.00,WeatherDisplay:10.37,2013-02-09 08:54:00,
2013-02-08 23:59:00,31.8,30.3,29.72,NNW,348,0.0,0.0,94,0.00,CLR,,0.00,WeatherDisplay:10.37,2013-02-09 08:59:00,